Location: Unspecified
(0.0000°N, 0.0000°E)
Time: 19:49:10
(UTC+00:00)

Hubble Space Telescope - Pass Details

Date: 04 June 2023
Orbit: 525 x 528 km, 28.5° (Epoch: 04 June)

Event Time Altitude Azimuth Distance (km) Brightness Sun altitude
Rises 19:35:27 0° 278° (W) 2,638 5.6 -22.3°
Reaches altitude 10° 19:38:00 10° 264° (W) 1,751 4.2 -22.9°
Enters shadow 19:41:14 24° 211° (SSW) 1,113 2.4 -23.6°
